Temp
-25 -25 -25 -26 -26 -27 -27 -27 -26 -26 -26 -25 -25 -24 -24 -25 -24 -24 -24 -24 -23 -23 -22 -21 -20 -19 -19 -19 -18 -18 -17 -17 -17 -16 -16 -16 -16 -16
-28 -28 -28 -29 -29 -28 -28 -28 -27 -27 -26 -26 -26 -26 -25 -25 -25 -25 -24 -25 -25 -24 -24 -23 -23 -21 -20 -19 -19 -18 -18 -18 -17 -17 -16 -16 -16 -16
-30 -29 -29 -29 -29 -29 -28 -28 -27 -27 -27 -27 -27 -27 -27 -26 -26 -25 -25 -25 -25 -24 -24 -24 -24 -23 -22 -20 -19 -19 -19 -18 -18 -17 -17 -16 -16 -16
-30 -30 -30 -30 -29 -29 -29 -29 -29 -28 -27 -27 -27 -27 -27 -27 -27 -26 -26 -26 -26 -26 -25 -25 -25 -24 -23 -22 -21 -20 -19 -19 -19 -19 -18 -16 -16 -16
-30 -30 -30 -30 -30 -30 -30 -29 -29 -29 -28 -28 -28 -28 -28 -27 -27 -27 -27 -26 -26 -26 -26 -25 -25 -25 -24 -24 -23 -22 -20 -20 -19 -19 -19 -18 -17 -16
-30 -30 -30 -30 -30 -30 -29 -29 -29 -29 -29 -28 -28 -28 -28 -27 -27 -27 -27 -27 -26 -26 -26 -26 -26 -26 -25 -25 -25 -24 -23 -21 -20 -20 -20 -20 -19 -17
-31 -30 -30 -30 -30 -30 -29 -29 -29 -29 -28 -28 -28 -28 -28 -27 -27 -27 -27 -27 -26 -26 -26 -26 -26 -26 -26 -25 -25 -25 -24 -24 -22 -22 -21 -21 -20 -19
-31 -30 -30 -30 -30 -30 -29 -29 -29 -29 -29 -28 -28 -28 -28 -28 -28 -28 -27 -27 -27 -27 -27 -26 -26 -25 -25 -25 -25 -25 -25 -24 -24 -23 -23 -23 -22 -21
-31 -30 -30 -30 -30 -29 -29 -29 -29 -29 -28 -29 -28 -28 -29 -29 -29 -29 -29 -29 -29 -29 -28 -27 -27 -26 -26 -26 -25 -25 -25 -25 -24 -24 -24 -23 -23 -23
-31 -30 -30 -30 -30 -29 -29 -29 -29 -29 -29 -29 -29 -29 -29 -29 -29 -29 -29 -29 -29 -29 -29 -29 -29 -29 -29 -27 -26 -25 -25 -25 -25 -24 -24 -24 -24 -23
-32 -31 -30 -30 -30 -30 -29 -30 -30 -30 -29 -29 -29 -29 -29 -29 -30 -30 -29 -29 -29 -29 -29 -29 -29 -29 -29 -29 -28 -27 -26 -25 -25 -25 -25 -24 -24 -24
-33 -32 -31 -30 -30 -30 -30 -30 -30 -29 -29 -29 -30 -30 -30 -30 -30 -30 -30 -30 -30 -30 -30 -29 -29 -29 -29 -29 -29 -29 -27 -26 -25 -25 -25 -25 -25 -24
-34 -33 -32 -31 -31 -30 -30 -30 -29 -29 -29 -29 -29 -30 -30 -30 -30 -30 -30 -30 -30 -30 -30 -30 -29 -29 -29 -29 -29 -30 -29 -27 -26 -25 -25 -25 -25 -25
-34 -34 -33 -32 -31 -31 -30 -30 -29 -30 -29 -29 -30 -30 -30 -30 -30 -30 -31 -31 -31 -31 -31 -30 -30 -30 -29 -29 -29 -29 -30 -29 -27 -25 -25 -25 -25 -25
-35 -34 -34 -33 -32 -31 -31 -29 -30 -30 -29 -29 -29 -29 -30 -30 -30 -31 -31 -31 -31 -31 -31 -31 -31 -30 -29 -30 -30 -30 -30 -30 -29 -27 -25 -25 -25 -25
-34 -34 -33 -32 -32 -31 -30 -30 -30 -29 -29 -29 -29 -29 -29 -29 -29 -30 -31 -32 -32 -32 -32 -32 -31 -31 -30 -30 -30 -30 -30 -30 -30 -29 -27 -25 -25 -25
-34 -33 -33 -32 -31 -31 -30 -30 -30 -30 -29 -29 -29 -29 -29 -29 -29 -29 -31 -32 -33 -33 -33 -32 -32 -31 -31 -31 -31 -30 -30 -30 -30 -30 -29 -27 -26 -25
-33 -33 -33 -32 -32 -31 -31 -30 -30 -30 -29 -29 -29 -29 -29 -29 -29 -29 -30 -32 -33 -33 -33 -33 -32 -32 -32 -31 -31 -31 -30 -29 -29 -30 -30 -29 -28 -26
-33 -33 -33 -32 -32 -31 -31 -31 -30 -30 -30 -30 -29 -29 -29 -29 -30 -30 -30 -31 -32 -33 -33 -33 -34 -33 -32 -32 -32 -31 -31 -30 -29 -29 -29 -30 -29 -28
-33 -33 -33 -32 -32 -32 -31 -31 -31 -30 -30 -30 -30 -30 -30 -30 -30 -30 -30 -30 -31 -32 -33 -33 -34 -34 -34 -33 -32 -32 -31 -31 -30 -30 -30 -30 -29 -30
-33 -33 -33 -32 -32 -32 -31 -31 -31 -31 -30 -30 -30 -30 -30 -30 -30 -30 -30 -30 -31 -31 -33 -33 -34 -35 -35 -34 -33 -32 -31 -31 -31 -30 -30 -30 -30 -30
-33 -33 -33 -32 -32 -32 -32 -31 -31 -31 -31 -31 -30 -30 -30 -30 -30 -30 -30 -31 -31 -31 -32 -33 -34 -34 -35 -34 -33 -32 -32 -31 -31 -31 -30 -30 -30 -30
-33 -33 -33 -33 -32 -32 -32 -31 -31 -31 -31 -31 -31 -30 -30 -30 -30 -31 -31 -31 -31 -31 -31 -32 -32 -33 -34 -34 -33 -33 -32 -32 -32 -31 -31 -31 -31 -30
Height
5496 5492 5490 5488 5487 5488 5488 5489 5488 5491 5495 5500 5499 5500 5504 5507 5510 5514 5517 5519 5524 5528 5532 5538 5544 5552 5559 5567 5575 5582 5589 5597 5607 5616 5624 5632 5642 5651
5472 5470 5468 5468 5468 5468 5469 5470 5470 5470 5474 5475 5478 5480 5482 5486 5490 5494 5497 5500 5504 5508 5511 5514 5521 5526 5534 5543 5552 5560 5569 5576 5583 5594 5604 5613 5623 5632
5454 5452 5452 5451 5451 5451 5451 5451 5451 5450 5453 5458 5459 5462 5464 5466 5469 5471 5475 5479 5482 5486 5491 5493 5497 5502 5509 5517 5526 5536 5546 5555 5563 5570 5581 5593 5602 5613
5439 5438 5437 5435 5435 5435 5434 5434 5433 5433 5432 5436 5442 5444 5446 5448 5449 5452 5453 5456 5460 5463 5467 5472 5473 5477 5483 5491 5502 5512 5522 5532 5542 5549 5556 5573 5582 5593
5424 5423 5421 5420 5419 5418 5418 5418 5418 5417 5416 5415 5424 5424 5425 5428 5430 5431 5432 5434 5436 5439 5443 5447 5452 5453 5459 5466 5474 5485 5497 5507 5520 5527 5537 5545 5559 5571
5410 5407 5405 5404 5403 5402 5402 5403 5402 5402 5400 5398 5402 5407 5404 5406 5408 5411 5412 5412 5416 5417 5420 5424 5429 5433 5438 5444 5452 5459 5469 5482 5492 5502 5514 5523 5533 5547
5395 5392 5390 5390 5389 5388 5388 5388 5387 5386 5384 5382 5383 5386 5386 5385 5386 5387 5389 5390 5394 5397 5400 5403 5406 5412 5417 5423 5430 5437 5446 5456 5466 5477 5489 5501 5511 5522
5381 5378 5376 5376 5375 5374 5374 5373 5372 5370 5368 5365 5366 5368 5366 5364 5365 5366 5367 5368 5373 5371 5375 5382 5383 5389 5396 5402 5409 5417 5426 5436 5445 5455 5466 5478 5489 5500
5365 5362 5361 5361 5361 5360 5360 5359 5357 5355 5353 5350 5350 5350 5349 5348 5349 5349 5349 5350 5352 5353 5355 5362 5363 5369 5373 5379 5387 5396 5405 5413 5423 5433 5444 5455 5467 5479
5346 5345 5345 5345 5345 5346 5346 5345 5344 5342 5339 5337 5338 5339 5338 5336 5336 5336 5337 5338 5340 5342 5343 5346 5347 5351 5352 5357 5365 5375 5384 5393 5403 5413 5423 5434 5445 5457
5328 5327 5327 5329 5331 5333 5333 5334 5332 5330 5329 5328 5326 5326 5325 5323 5322 5322 5324 5323 5325 5327 5328 5331 5334 5338 5339 5342 5343 5350 5360 5372 5384 5394 5404 5414 5425 5436
5312 5311 5312 5315 5319 5321 5323 5324 5324 5323 5322 5319 5317 5315 5313 5312 5311 5312 5312 5312 5312 5314 5314 5315 5319 5323 5326 5329 5330 5332 5339 5352 5364 5375 5385 5396 5407 5417
5300 5300 5301 5305 5309 5312 5315 5316 5317 5316 5315 5313 5311 5308 5306 5305 5304 5304 5304 5303 5303 5304 5302 5303 5305 5309 5313 5316 5319 5321 5323 5332 5345 5356 5367 5379 5390 5400
5291 5292 5295 5299 5303 5306 5308 5310 5311 5312 5310 5309 5306 5304 5302 5300 5299 5297 5295 5294 5293 5293 5291 5292 5294 5296 5299 5303 5307 5311 5313 5317 5326 5338 5350 5361 5372 5383
5287 5289 5293 5296 5299 5301 5303 5306 5308 5308 5307 5305 5303 5300 5298 5295 5292 5289 5286 5284 5282 5281 5280 5281 5283 5285 5288 5291 5296 5300 5304 5307 5311 5321 5331 5343 5355 5366
5287 5290 5292 5294 5296 5298 5301 5303 5304 5304 5303 5302 5300 5298 5295 5291 5287 5282 5277 5273 5270 5269 5270 5271 5274 5275 5278 5281 5285 5290 5295 5300 5303 5308 5317 5328 5339 5351
5289 5290 5291 5292 5294 5296 5299 5301 5302 5301 5301 5300 5299 5297 5294 5290 5284 5278 5272 5267 5264 5262 5261 5263 5265 5267 5269 5273 5277 5282 5287 5292 5297 5301 5306 5314 5324 5335
5290 5290 5291 5291 5293 5295 5298 5299 5300 5300 5299 5299 5298 5295 5292 5288 5283 5277 5271 5265 5262 5259 5258 5257 5259 5260 5263 5265 5269 5273 5278 5284 5289 5295 5300 5305 5311 5320
5290 5291 5291 5292 5293 5295 5297 5298 5298 5298 5297 5297 5296 5294 5291 5287 5283 5278 5272 5266 5260 5258 5256 5254 5251 5253 5255 5258 5262 5266 5271 5276 5281 5287 5293 5298 5302 5308
5291 5291 5292 5292 5293 5294 5296 5297 5297 5296 5296 5295 5294 5292 5290 5287 5283 5279 5274 5268 5262 5257 5254 5251 5248 5247 5249 5252 5256 5260 5264 5269 5274 5279 5285 5291 5296 5300
5292 5292 5292 5292 5293 5293 5294 5295 5295 5294 5294 5293 5292 5290 5288 5285 5282 5278 5275 5270 5264 5258 5253 5250 5247 5244 5244 5247 5251 5255 5259 5264 5268 5273 5277 5282 5288 5293
5292 5291 5291 5292 5292 5292 5292 5292 5292 5292 5291 5291 5289 5288 5286 5284 5281 5278 5275 5271 5267 5261 5256 5251 5247 5245 5243 5245 5248 5252 5256 5259 5263 5267 5271 5275 5280 5285
5291 5291 5291 5290 5290 5290 5290 5291 5290 5290 5289 5288 5287 5285 5284 5282 5280 5277 5274 5271 5268 5264 5259 5254 5250 5247 5245 5245 5247 5251 5254 5257 5260 5263 5266 5269 5272 5276
Wind_Speed
82 80 77 74 71 71 69 65 69 66 65 66 72 75 73 73 76 75 75 73 73 74 77 79 80 80 82 85 86 87 87 86 84 83 83 81 80 79
66 66 61 53 49 49 54 59 63 69 67 69 70 70 71 72 77 74 74 72 72 73 74 79 81 84 85 86 87 88 89 88 88 86 85 84 83 80
50 48 47 46 47 49 58 61 62 65 67 65 68 70 70 70 72 76 76 78 79 81 80 80 81 82 88 90 89 88 89 90 91 91 89 88 87 85
50 49 47 47 48 48 50 51 56 63 72 76 73 72 72 73 73 75 75 76 78 81 83 83 85 87 87 90 93 92 89 90 90 92 94 91 90 88
48 48 48 49 48 49 50 51 51 53 56 59 56 59 62 64 66 69 72 77 79 77 77 80 78 80 79 82 86 90 94 92 91 91 93 95 94 91
50 49 48 47 46 46 45 44 45 47 50 53 52 51 56 58 60 61 64 66 68 70 71 72 72 73 74 75 77 80 83 90 93 93 92 95 95 95
47 46 46 45 44 44 43 44 45 47 50 53 52 52 54 57 59 60 63 65 66 68 69 70 70 71 72 74 74 75 76 79 86 90 91 93 94 95
47 47 45 43 42 42 42 43 47 48 49 49 48 47 48 52 53 54 56 58 61 65 65 66 71 71 71 72 72 73 73 74 77 82 84 87 91 91
50 50 49 47 46 45 45 46 46 45 44 44 44 41 38 37 38 37 36 37 38 42 49 54 61 67 71 72 73 72 72 73 74 76 80 81 85 87
52 51 49 47 46 44 42 41 39 38 39 36 32 33 36 39 41 42 43 45 44 44 45 42 43 42 49 66 74 73 72 73 72 72 74 77 81 83
44 44 45 44 41 39 37 33 30 25 27 32 34 34 33 36 37 38 37 41 44 46 47 48 46 43 43 39 50 68 72 72 71 71 71 73 76 80
36 35 35 33 31 30 26 20 19 23 22 24 25 24 24 28 31 32 34 32 33 36 41 45 47 46 44 42 38 45 61 70 72 71 71 70 72 76
27 27 25 22 21 18 14 15 12 11 10 11 12 11 11 14 20 22 24 25 26 26 31 34 37 46 45 44 40 33 47 61 69 71 71 69 69 73
19 18 15 13 11 11 10 8 11 7 5 7 9 11 12 14 18 23 28 30 32 32 35 36 34 34 40 41 42 38 33 50 63 69 71 69 68 70
8 8 8 8 9 7 8 9 9 2 4 7 10 12 14 17 21 26 30 32 33 33 34 34 31 34 35 38 39 39 34 33 50 64 69 71 69 68
6 8 8 9 9 10 9 7 4 2 5 9 12 14 15 15 16 17 22 26 28 32 33 31 31 30 31 35 37 37 35 31 34 48 61 68 70 69
6 6 4 4 7 10 11 5 4 4 5 7 11 14 17 19 20 21 17 13 13 16 22 28 27 25 27 30 32 35 35 33 30 32 46 58 66 70
3 3 1 6 8 10 9 6 5 4 4 6 9 12 16 20 24 25 22 15 10 9 8 13 24 23 22 25 29 31 34 35 33 32 30 39 53 63
1 3 3 8 10 9 8 7 5 4 3 4 7 11 14 18 22 25 26 23 14 10 10 12 15 27 25 24 26 28 30 33 36 35 34 30 32 48
1 3 4 7 9 9 9 8 5 3 2 2 5 9 12 15 19 22 25 27 23 14 11 11 11 14 26 25 26 25 25 29 30 35 36 35 31 30
2 3 4 5 7 8 8 7 5 4 2 0 4 8 10 13 16 19 21 23 26 23 15 12 10 8 15 24 22 24 26 24 26 28 32 36 35 33
2 2 3 4 4 5 5 5 4 4 3 2 5 7 10 12 13 16 18 19 21 24 23 18 13 9 4 18 21 19 20 22 24 26 28 30 34 36
6 5 4 4 4 4 4 5 5 5 3 3 5 7 8 9 11 13 15 16 17 19 22 24 21 14 8 1 16 22 21 20 19 18 20 25 30 34
Wind_Direction
278 275 274 272 268 265 263 262 260 259 256 254 253 251 254 251 252 251 253 254 255 255 252 252 250 244 243 240 238 239 240 240 236 234 236 237 238 239
276 274 274 274 268 264 260 255 256 253 254 251 252 254 252 250 249 254 251 249 252 254 254 253 251 251 246 242 239 237 238 240 241 236 234 236 237 237
280 278 275 272 266 259 253 256 255 256 256 256 254 259 260 261 260 259 255 253 254 254 253 255 255 253 251 246 242 238 236 237 239 240 237 234 235 236
275 277 275 272 269 267 266 264 261 259 257 256 256 256 257 257 258 256 255 256 256 257 256 255 259 258 255 250 246 243 238 236 237 239 239 235 233 234
280 279 279 277 274 272 270 270 270 267 265 264 260 260 259 258 258 258 259 259 260 260 259 259 256 255 252 250 248 245 241 238 236 236 238 239 234 232
285 284 282 279 277 274 272 271 270 269 269 269 267 263 263 260 258 256 254 252 252 253 252 252 251 250 250 249 247 245 242 239 237 237 235 236 238 233
283 281 279 277 276 275 274 274 274 274 272 271 270 268 266 265 263 261 259 257 255 253 252 252 251 249 248 247 245 244 243 241 238 237 235 234 235 236
280 280 279 278 276 276 277 276 277 277 276 275 275 272 269 268 267 265 263 261 257 255 252 251 251 250 248 246 244 243 242 241 239 237 236 235 233 234
279 277 276 276 276 276 276 277 279 279 279 278 275 273 267 263 261 260 258 253 252 251 251 250 251 251 249 247 243 240 238 238 237 237 236 235 234 233
278 275 273 273 274 274 276 278 281 280 277 275 272 268 267 266 266 263 260 258 256 253 252 252 253 253 253 249 245 241 237 236 236 235 235 234 232 232
284 278 273 270 270 272 274 278 277 272 276 278 280 279 272 268 264 263 262 260 259 257 255 251 249 251 255 261 252 242 236 234 233 233 233 232 232 230
282 274 270 267 265 265 271 266 264 273 281 289 292 289 277 261 259 259 260 260 256 254 255 256 249 246 251 255 262 246 235 231 230 230 231 230 229 229
276 266 262 253 251 254 242 253 261 277 286 293 300 299 289 271 264 263 262 260 259 257 259 257 255 245 247 249 254 259 235 227 227 226 228 227 226 227
274 258 246 235 224 223 237 238 237 246 310 317 320 320 305 286 273 269 267 266 265 262 261 261 258 255 246 244 246 250 250 229 223 224 225 225 225 225
255 220 203 213 225 241 226 215 215 259 342 348 346 336 320 302 292 284 276 270 267 265 260 259 256 251 250 240 237 243 246 239 226 223 224 224 224 224
176 182 200 217 228 192 179 190 195 104 31 19 17 11 2 353 343 325 300 285 273 264 254 255 254 248 248 241 231 235 240 240 233 225 223 224 224 224
156 164 181 187 168 160 169 165 138 83 52 31 20 12 13 13 12 7 353 320 301 287 264 246 248 246 244 239 232 229 234 237 234 232 227 225 225 225
117 137 128 148 161 164 179 168 142 103 69 21 11 9 12 16 20 18 12 347 326 309 316 267 243 242 242 238 232 228 227 232 232 230 230 231 227 225
121 141 132 152 165 171 188 186 172 128 76 17 5 6 11 14 18 21 21 17 355 322 312 313 263 231 233 233 231 228 225 225 229 231 229 228 232 229
125 169 157 162 167 182 197 203 191 157 114 34 5 2 5 9 12 16 18 21 18 360 336 327 323 253 226 228 228 227 225 224 226 226 227 228 229 229
152 179 193 188 187 189 199 206 204 192 183 301 346 345 352 2 7 8 10 17 22 21 8 353 339 312 234 224 223 227 229 225 224 225 226 226 226 228
187 187 193 202 210 209 206 206 215 219 233 290 330 334 340 353 2 6 7 12 19 25 26 21 9 358 273 221 216 217 218 220 223 222 222 224 227 228
220 215 199 192 205 212 225 241 246 252 267 301 323 324 329 342 352 357 360 4 13 21 26 29 29 23 19 256 222 224 219 217 216 213 213 217 220 224